NODES 1

Last updated on Sept. 27, 2017, 12:17 a.m. UTC

1 41478U 98067HY  17266.27255257  .13534231  12598-4  22876-3 0  9990
2 41478  51.6086 206.1528 0005980 262.1280  97.9071 16.47641774 77698

Satellite is not in orbit.